Everett, WA

7:30 AM PST on November 12, 2019 (GMT -0800)
Snohomish County

Weather History for KPAE - August, 2019

Change the Weather History Date:

Thursday, August 15, 2019

  Actual Average Record
Temperature  
Mean Temperature 67 °F -  
Max Temperature 77 °F 73 °F 91 °F (2010)
Min Temperature 59 °F 54 °F 40 °F (1966)
Cooling Degree Days 2    
Growing Degree Days 17 (Base 50)    
Moisture  
Dew Point 57 °F    
Average Humidity 79    
Maximum Humidity 96    
Minimum Humidity 46    
Precipitation  
Precipitation 0.00 in - - ()
Sea Level Pressure  
Sea Level Pressure 30.19 in    
Wind  
Wind Speed 5 mph (North)    
Max Wind Speed 10 mph    
Max Gust Speed 18 mph    
Visibility 10 miles    
Events      
Averages and records for this station are not official NWS values.
T = Trace of Precipitation, MM = Missing Value Source: NWS Daily Summary

Daily Weather History Graph

Daily Weather History Graph

Search for Another Location

Airport or City:

Astronomy

Aug. 15, 2019 Rise Set
Actual Time 6:04 AM PDT 8:22 PM PDT
Civil Twilight 5:29 AM PDT 8:56 PM PDT
Nautical Twilight 4:47 AM PDT 9:38 PM PDT
Astronomical Twilight 3:58 AM PDT 10:26 PM PDT
Moon 8:54 PM PDT (8/15) 5:59 AM PDT (8/15)
Length of Visible Light 15h 26m
Length of Day
14h 18m
Full, 100% of the Moon is Illuminated
Aug 15
Full
Aug 23
Last Quarter
Aug 30
New
Sep 5
First Quarter
Sep 13
Full

Hourly Weather History & Observations

Time (PDT) Temp. Dew Point Humidity Pressure Visibility Wind Dir Wind Speed Gust Speed Precip Events Conditions
12:53 AM 61.0 °F 57.0 °F 87% 30.18 in 10.0 mi NE 4.6 mph - N/A   Clear
1:53 AM 62.1 °F 55.0 °F 78% 30.19 in 10.0 mi NNW 3.5 mph - N/A   Clear
2:53 AM 60.1 °F 55.9 °F 86% 30.19 in 10.0 mi Variable 3.5 mph - N/A   Clear
3:02 AM 60.1 °F 57.0 °F 90% 30.20 in 10.0 mi NNE 5.8 mph - N/A   Partly Cloudy
3:20 AM 59.0 °F 57.0 °F 93% 30.21 in 10.0 mi NNE 6.9 mph - N/A   Mostly Cloudy
3:53 AM 59.0 °F 57.0 °F 93% 30.20 in 10.0 mi NNE 4.6 mph - N/A   Overcast
4:53 AM 59.0 °F 57.0 °F 93% 30.20 in 10.0 mi NE 4.6 mph - N/A   Overcast
5:23 AM 59.0 °F 57.0 °F 93% 30.21 in 10.0 mi ENE 4.6 mph - N/A   Scattered Clouds
5:53 AM 59.0 °F 57.0 °F 93% 30.21 in 10.0 mi Calm Calm - N/A   Mostly Cloudy
6:53 AM 59.0 °F 57.0 °F 93% 30.22 in 10.0 mi North 5.8 mph - N/A   Partly Cloudy
7:26 AM 59.0 °F 57.0 °F 93% 30.23 in 10.0 mi North 4.6 mph - N/A   Scattered Clouds
7:37 AM 59.0 °F 57.9 °F 96% 30.23 in 10.0 mi North 3.5 mph - N/A   Mostly Cloudy
7:46 AM 60.1 °F 57.9 °F 93% 30.24 in 10.0 mi Calm Calm - N/A   Scattered Clouds
7:53 AM 61.0 °F 57.9 °F 90% 30.23 in 10.0 mi Calm Calm - N/A   Scattered Clouds
8:53 AM 64.0 °F 57.9 °F 80% 30.23 in 10.0 mi Calm Calm - N/A   Partly Cloudy
9:53 AM 66.9 °F 57.0 °F 70% 30.23 in 10.0 mi Calm Calm - N/A   Partly Cloudy
10:53 AM 68.0 °F 59.0 °F 73% 30.23 in 10.0 mi Variable 5.8 mph - N/A   Clear
11:53 AM 66.9 °F 57.0 °F 70% 30.23 in 10.0 mi West 9.2 mph - N/A   Clear
12:53 PM 69.1 °F 59.0 °F 70% 30.22 in 10.0 mi WSW 9.2 mph - N/A   Clear
1:53 PM 72.0 °F 55.9 °F 57% 30.21 in 10.0 mi SW 9.2 mph - N/A   Clear
2:53 PM 73.9 °F 55.0 °F 52% 30.19 in 10.0 mi West 6.9 mph - N/A   Clear
3:53 PM 75.0 °F 54.0 °F 48% 30.17 in 10.0 mi West 8.1 mph 18.4 mph N/A   Clear
4:53 PM 75.9 °F 54.0 °F 46% 30.16 in 10.0 mi WSW 8.1 mph - N/A   Clear
5:53 PM 72.0 °F 55.9 °F 57% 30.14 in 10.0 mi North 8.1 mph - N/A   Clear
6:53 PM 66.9 °F 57.0 °F 70% 30.14 in 10.0 mi North 5.8 mph - N/A   Clear
7:53 PM 64.9 °F 57.0 °F 75% 30.13 in 10.0 mi North 6.9 mph - N/A   Partly Cloudy
8:53 PM 62.1 °F 55.9 °F 80% 30.14 in 10.0 mi NNE 10.4 mph - N/A   Partly Cloudy
9:53 PM 60.1 °F 55.0 °F 83% 30.14 in 10.0 mi North 10.4 mph 17.3 mph N/A   Clear
10:53 PM 59.0 °F 54.0 °F 83% 30.13 in 10.0 mi North 10.4 mph - N/A   Clear